User: anonymous   Login
Location: Catstown
(52.4386°N, 7.2633°W)
Time: 13:42:42
(UTC+00:00)
Language:

Cosmos 2082 Rocket - Orbit

View from above orbital plane
View from above orbital plane
View from above satellite
View from above satellite

Ground track
Ground track

The orbit data is extracted from the following two-line orbital elements,

1 20625U 90046B   20333.55148800 +.00000144 +00000-0 +99620-4 0  9995
2 20625 070.9998 023.7633 0014654 344.0769 015.9891 14.14657228575826
Epoch (UTC): 28 November 2020 13:14:08
Eccentricity: 0.0014654
inclination: 70.9998°
perigee height: 833 km
apogee height: 854 km
right ascension of ascending node: 23.7633°
argument of perigee: 344.0769°
revolutions per day: 14.14657228
mean anomaly at epoch: 15.9891°
orbit number at epoch: 57582

The dashed part of the orbit path shows where the satellite is in the earth's shadow,  

DLR